EHI
0 0 0 0 0 0 0 0 0 0 0 0 0 0 0 0 0 0 0 0 0 0 0 0 0 0 0 0 0 0 0 0 0 0 0 0 0 0 0 0 0 0 0
0 0 0 0 0 0 0 0 0 0 0 0 0 0 0 0 0 0 0 0 0 0 0 0 0 0 0 0 0 0 0 0 0 0 0 0 0 0 0 0 0 0 0
0 0 0 0 0 0 0 0 0 0 0 0 0 0 0 0 0 0 0 0 0 0 0 0 0 0 0 0 0 0 0 0 0 0 0 0 0 0 0 0 0 0 0
0 0 0 0 0 0 0 0 0 0 0 0 0 0 0 0 0 0 0 0 0 0 0 0 0 0 0 0 0 0 0 0 0 0 0 0 0 0 0 0 0 0 0
0 0 0 0 0 0 0 0 0 0 0 0 0 0 0 0 0 0 0 0 0 0 0 0 0 0 0 0 0 0 0 0 0 0 0 0 0 0 0 0 0 0 0
0 0 0 0 0 0 0 0 0 0 0 0 0 0 0 0 0 0 0 0 0 0 0 0 0 0 0 0 0 0 0 0 0 0 0 0 0 0 0 0 0 0 0
0 0 0 0 0 0 0 0 0 0 0 0 0 0 0 0 0 0 0 0 0 0 0 0 0 0 0 0 0 0 0 0 0 0 0 0 0 0 0 0 0 0 0
0 0 0 0 0 0 0 0 0 0 0 0 0 0 0 0 0 0 0 0 0 0 0 0 0 0 0 0 0 0 0 0 0 0 0 0 0 0 0 0 0 0 0
0 0 0 0 0 0 0 0 0 0 0 0 0 0 0 0 0 0 0 0 0 0 0 0 0 0 0 0 0 0 0 0 0 0 0 0 0 0 0 0 0 0 0
0 0 0 0 0 0 0 0 0 0 0 0 0 0 0 0 0 0 0 0 0 0 0 0 0 0 0 0 0 0 0 0 0 0 0 0 0 0 0 0 0 0 0
0 0 0 0 0 0 0 0 0 0 0 0 0 0 0 0 0 0 0 0 0 0 0 0 0 0 0 0 0 0 0 0 0 0 0 0 0 0 0 0 0 0 0
0 0 0 0 0 0 0 0 0 0 0 0 0 0 0 0 0 0 0 0 0 0 0 0 0 0 0 0 0 0 0 0 0 0 0 0 0 0 0 0 0 0 0
0 0 0 0 0 0 0 0 0 0 0 0 0 0 0 0 0 0 0 0 0 0 0 0 0 0 0 0 0 0 0 0 0 0 0 0 0 0 0 0 0 0 0
0 0 0 0 0 0 0 0 0 0 0 0 0 0 0 0 0 0 0 0 0 0 0 0 0 0 0 0 0 0 0 0 0 0 0 0 0 0 0 0 0 0 0
0 0 0 0 0 0 0 0 0 0 0 0 0 0 0 0 0 0 0 0 0 0 0 0 0 0 0 0 0 0 0 0 0 0 0 0 0 0 0 0 0 0 0
0 0 0 0 0 0 0 0 0 0 0 0 0 0 0 0 0 0 0 0 0 0 0 0 0 0 0 0 0 0 0 0 0 0 0 0 0 0 0 0 0 0 0
0 0 0 0 0 0 0 0 0 0 0 0 0 0 0 0 0 0 0 0 0 0 0 0 0 0 0 0 0 0 0 0 0 0 0 0 0 0 0 0 0 0 0
0 0 0 0 0 0 0 0 0 0 0 0 0 0 0 0 0 0 0 0 0 0 0 0 0 0 0 0 0 0 0 0 0 0 0 0 0 0 0 0 0 0 0
0 0 0 0 0 0 0 0 0 0 0 0 0 0 0 0 0 0 0 0 0 0 0 0 0 0 0 0 0 0 0 0 0 0 0 0 0 0 0 0 0 0 0
0 0 0 0 0 0 0 0 0 0 0 0 0 0 0 0 0 0 0 0 0 0 0 0 0 0 0 0 0 0 0 0 0 0 0 0 0 0 0 0 0 0 0
0 0 0 0 0 0 0 0 0 0 0 0 0 0 0 0 0 0 0 0 0 0 0 0 0 0 0 0 0 0 0 0 0 0 0 0 0 0 0 0 0 0 0
0 0 0 0 0 0 0 0 0 0 0 0 0 0 0 0 0 0 0 0 0 0 0 0 0 0 0 0 0 0 0 0 0 0 0 0 0 0 0 0 0 0 0
0 0 0 0 0 0 0 0 0 0 0 0 0 0 0 0 0 0 0 0 0 0 0 0 0 0 0 0 0 0 0 0 0 0 0 0 0 0 0 0 0 0 0
0 0 0 0 0 0 0 0 0 0 0 0 0 0 0 0 0 0 0 0 0 0 0 0 0 0 0 0 0 0 0 0 0 0 0 0 0 0 0 0 0 0 0
0 0 0 0 0 0 0 0 0 0 0 0 0 0 0 0 0 0 0 0 0 0 0 0 0 0 0 0 0 0 0 0 0 0 0 0 0 0 0 0 0 0 0
0 0 0 0 0 0 0 0 0 0 0 0 0 0 0 0 0 0 0 0 0 0 0 0 0 0 0 0 0 0 0 0 0 0 0 0 0 0 0 0 0 0 0
Wind_Speed
11 11 10 11 10 9 8 8 9 9 10 11 12 13 14 14 15 16 17 18 18 19 20 20 21 21 21 22 22 22 22 23 23 22 22 22 23 25 25 25 24 17 25
14 13 13 12 11 9 9 9 9 9 10 11 11 12 13 14 15 15 16 17 17 18 19 19 19 20 20 21 21 21 21 21 21 20 19 18 21 24 24 24 24 18 25
14 13 14 13 12 10 9 9 9 9 10 10 11 11 12 13 14 14 15 15 16 17 18 18 18 19 19 20 20 20 20 20 19 18 16 13 15 22 23 23 23 24 24
14 12 12 14 12 11 10 9 9 9 9 10 10 11 11 12 13 13 14 14 15 16 16 17 17 18 19 19 20 20 20 19 19 17 12 12 13 21 23 23 23 23 24
13 12 12 14 13 12 10 9 9 9 9 9 9 10 10 11 12 12 13 13 14 14 15 16 16 17 18 19 19 20 21 20 18 16 13 13 13 21 24 24 23 23 23
14 13 13 15 13 12 11 10 9 9 9 9 8 9 9 10 10 11 11 12 12 13 14 15 15 16 17 18 19 20 21 20 16 13 13 13 14 22 24 24 24 24 24
15 13 13 15 14 13 11 10 9 9 9 9 8 8 8 9 9 9 10 10 11 12 13 13 14 15 16 17 18 19 20 19 13 12 12 12 16 23 23 24 24 24 24
14 13 11 15 14 13 12 11 10 9 9 9 8 7 7 7 8 8 8 9 9 10 11 12 13 14 15 16 17 18 18 17 12 12 11 11 20 23 23 23 23 23 23
14 13 11 13 14 14 13 12 11 10 9 9 8 7 7 6 7 7 7 7 8 9 10 11 12 13 14 15 16 16 16 15 11 9 10 10 20 23 23 23 23 23 24
13 13 13 12 12 12 12 13 12 11 10 10 9 8 7 6 6 5 4 6 6 7 8 9 10 11 12 13 14 14 13 10 10 9 8 12 21 22 22 23 23 24 24
14 14 13 13 12 11 10 12 13 12 11 11 10 9 7 5 5 4 5 5 5 6 7 8 8 9 7 9 11 11 8 6 9 7 7 15 20 21 21 22 22 23 24
20 18 15 14 13 12 9 9 8 9 9 9 8 8 6 5 3 3 5 4 4 4 4 6 6 5 4 4 6 7 5 8 7 6 7 15 18 20 20 21 21 22 23
20 19 17 15 14 13 10 8 6 6 7 8 9 9 6 5 5 4 4 4 4 3 1 1 0 3 4 4 4 5 6 6 5 5 7 13 17 18 19 20 21 21 22
20 21 19 17 15 14 12 9 9 7 7 7 9 10 7 5 5 5 4 4 3 2 1 1 1 2 3 4 4 5 6 5 5 5 6 12 15 17 19 19 20 21 22
20 20 20 19 17 15 13 10 9 9 9 9 8 9 10 7 7 6 5 4 4 3 3 1 1 1 3 3 4 5 6 7 7 7 6 11 14 16 18 19 20 20 21
22 21 20 21 19 17 13 12 10 10 9 9 9 11 12 8 7 7 6 6 5 4 3 2 2 2 3 4 5 6 7 8 8 9 8 9 13 15 17 18 19 20 21
22 21 21 21 20 19 17 15 11 10 10 10 9 12 13 11 9 8 7 6 6 5 5 4 4 3 4 5 7 7 7 8 9 10 9 8 9 12 15 17 18 20 21
20 20 21 17 20 20 17 15 11 11 11 10 10 10 14 13 12 9 8 7 7 6 5 5 4 4 5 5 6 6 7 7 10 10 9 9 8 8 11 15 18 20 21
20 20 20 21 21 20 18 14 13 11 12 11 10 10 13 15 14 11 8 7 8 7 6 5 5 5 5 6 6 7 8 8 9 9 10 11 10 10 9 12 17 19 20
19 19 19 20 20 19 16 13 12 13 12 11 11 12 14 13 15 13 9 10 10 8 7 7 8 7 6 6 6 8 9 10 9 9 10 9 9 11 11 12 11 12 18
19 19 20 20 21 18 15 15 14 14 13 12 12 15 16 15 16 15 10 11 11 10 10 10 8 9 7 6 6 8 9 10 10 8 8 9 10 11 11 12 10 10 10
20 21 21 22 21 21 16 15 12 13 12 13 12 15 17 17 17 14 15 12 12 10 12 11 10 7 7 7 6 6 6 6 8 7 8 9 10 9 11 12 12 13 12
19 21 19 22 21 21 19 13 11 10 9 12 15 14 17 19 19 17 18 15 14 13 11 13 12 12 9 8 8 7 6 5 4 6 10 9 10 9 10 11 13 14 15
17 16 18 19 20 19 19 18 19 16 17 17 14 13 16 19 20 19 18 18 16 13 13 13 13 11 11 9 8 9 9 7 6 6 6 8 10 12 12 11 12 14 15
14 15 15 17 18 19 20 21 20 20 17 13 14 16 17 18 20 20 20 18 17 14 15 14 13 14 11 11 9 8 9 9 11 9 10 9 9 10 11 12 12 12 14
11 13 15 17 19 19 21 22 23 23 20 18 18 16 15 13 15 21 21 19 18 15 16 15 14 15 13 13 10 9 9 8 8 10 11 12 11 11 12 11 12 12 12
Wind_Direction
157 155 159 148 137 124 112 101 89 80 73 69 66 66 63 59 58 56 55 53 51 49 48 47 46 44 44 45 47 46 40 34 31 29 26 23 20 22 24 21 17 16 15
151 154 156 149 141 132 121 109 98 87 79 73 69 68 65 61 59 56 55 53 52 50 49 47 46 44 44 45 46 45 40 35 33 30 28 24 19 19 21 20 17 13 13
151 154 154 152 145 138 128 118 106 94 86 79 73 71 68 63 61 57 55 53 52 50 48 47 45 44 44 44 44 43 40 35 33 30 28 23 15 16 19 18 15 13 10
154 157 153 151 150 144 136 126 114 102 92 84 77 74 70 64 62 58 55 53 50 49 48 46 44 43 44 43 42 40 39 34 30 28 26 20 12 11 16 16 13 11 7
160 159 153 157 155 150 143 134 123 111 100 90 81 77 73 66 62 59 55 52 49 48 48 46 44 42 41 40 39 37 35 32 27 26 22 16 9 7 11 12 10 8 6
164 164 160 162 160 156 151 142 132 121 110 100 89 82 77 70 64 62 57 53 50 48 47 47 44 41 39 38 36 34 30 27 23 23 17 12 5 3 7 8 6 4 3
168 168 166 168 166 164 159 151 142 131 122 111 100 90 84 77 69 64 61 55 50 49 48 47 45 42 39 37 35 32 27 22 21 19 13 8 0 360 3 4 2 1 359
171 172 172 174 173 171 167 161 153 144 135 124 113 101 90 84 77 68 65 59 52 50 49 48 46 43 39 37 35 31 26 20 15 14 8 2 358 356 358 359 358 356 355
178 179 181 180 178 177 176 171 164 156 148 138 127 115 103 91 84 72 66 64 55 52 51 49 48 44 38 36 33 28 22 15 12 9 3 358 353 352 353 354 353 352 351
187 189 186 186 180 180 180 178 172 167 161 152 140 131 118 105 97 85 80 71 61 54 54 52 49 47 40 36 32 26 17 7 9 2 0 353 349 348 348 348 347 346 345
196 196 194 190 185 185 183 177 178 175 171 164 156 148 151 154 142 138 88 80 71 56 55 53 49 46 43 41 32 21 11 3 356 354 353 347 343 342 342 342 341 340 339
197 197 196 196 191 189 185 182 184 179 172 181 171 168 176 170 160 148 117 98 85 65 62 52 49 42 29 25 28 12 3 353 350 345 344 341 336 335 334 334 333 333 332
198 196 198 198 196 193 188 187 184 180 177 186 188 184 183 178 171 185 177 164 163 171 156 101 48 33 24 20 359 356 350 342 332 329 328 330 327 325 325 325 325 325 325
200 200 199 198 199 199 196 193 192 189 188 189 191 192 189 188 193 191 199 189 193 189 190 230 1 23 6 356 343 334 328 320 314 312 310 313 314 314 315 316 318 319 320
203 203 201 199 199 199 200 200 199 199 195 193 190 194 197 195 196 195 196 196 199 196 201 214 268 329 319 320 313 309 307 304 299 297 294 296 300 303 305 309 312 314 315
206 204 201 201 201 199 200 202 202 202 198 198 194 196 200 202 199 199 200 200 201 201 202 216 250 283 292 294 293 292 292 293 287 287 285 289 288 291 296 301 305 308 309
206 204 202 201 201 201 203 205 205 202 198 200 198 198 200 204 204 202 205 204 201 196 200 210 217 248 268 276 279 285 286 283 281 280 280 280 282 281 284 290 297 300 303
207 205 203 199 202 203 205 205 206 204 202 203 200 199 201 204 205 205 207 207 198 199 207 213 223 240 248 264 275 279 278 276 277 276 274 270 271 274 279 281 287 293 298
208 204 202 200 202 203 205 206 209 207 207 207 203 202 201 203 204 207 211 205 198 204 208 211 220 233 247 256 268 276 274 271 272 269 266 265 265 266 272 278 281 285 290
209 205 202 201 203 202 203 207 209 213 213 211 208 206 202 202 204 208 210 207 201 205 207 207 217 221 239 256 268 271 270 269 267 263 263 261 260 262 267 274 279 280 282
208 206 203 201 202 199 199 203 206 210 211 212 212 210 206 205 203 207 208 206 204 209 210 210 215 224 227 232 256 263 260 254 255 253 253 257 260 264 267 271 274 278 282
208 206 205 205 202 201 202 204 208 212 216 215 212 214 210 208 205 206 209 207 205 209 211 211 211 219 224 218 235 267 275 247 226 243 255 258 264 268 270 273 276 279 283
213 210 208 207 205 204 202 202 204 211 218 214 214 214 212 210 208 207 210 209 207 208 210 209 207 214 221 214 217 236 259 279 293 245 250 258 265 268 272 275 277 278 280
219 217 216 213 211 207 202 205 203 206 212 214 213 213 211 211 211 209 209 210 209 209 211 209 208 212 220 226 217 223 236 256 271 286 248 247 255 263 266 271 275 278 279
218 215 216 216 215 210 207 210 212 219 224 222 215 216 214 211 212 210 209 208 209 209 211 209 207 210 214 223 225 222 230 241 238 248 273 277 269 265 270 275 276 277 278
220 214 212 213 215 211 210 213 216 221 223 222 218 216 215 213 212 212 210 208 208 208 208 208 208 210 213 219 226 229 232 236 240 245 262 273 280 281 282 279 277 275 274